Temperature
23 22 22 23 28 29 27 27 27 27 26 25 25 25 25 24 24 22 20 19 19 18 18 18 18 18 18 18 18 18 18 18 18 18 18 18 18 18 18 18 18 18 18 18 18 18 18 18 18
22 22 23 27 30 28 27 27 27 26 25 24 24 24 24 23 22 21 19 19 18 18 18 18 18 18 18 18 18 18 18 18 18 18 18 18 18 18 18 18 18 18 18 18 18 18 18 18 18
22 23 27 30 29 28 27 27 26 26 25 25 24 24 23 22 21 20 19 19 19 18 18 18 18 18 18 18 18 18 18 18 18 18 18 18 18 18 18 18 18 18 18 18 18 18 18 18 18
23 26 29 30 28 28 28 27 27 26 25 25 24 24 22 21 20 20 19 19 19 18 18 18 18 18 18 18 18 18 18 18 18 18 18 18 18 18 18 18 18 18 18 18 18 18 18 18 18
25 30 31 30 28 28 28 27 27 27 26 25 25 24 22 20 20 19 19 19 19 19 18 18 18 18 18 18 18 18 18 18 18 18 18 18 18 18 18 18 18 18 18 18 18 18 18 18 18
29 32 31 29 28 28 28 27 27 27 25 25 24 24 22 20 20 19 19 19 19 19 19 18 19 18 18 18 18 18 18 18 18 18 18 18 18 18 18 18 18 18 18 18 18 18 18 18 18
31 32 30 30 29 28 28 27 27 27 26 25 25 24 22 21 20 20 19 19 19 19 19 18 18 18 18 18 18 18 18 18 18 18 18 18 18 18 18 18 18 18 18 18 18 18 18 18 18
30 32 31 30 29 28 28 27 26 26 25 24 24 25 23 21 20 20 19 19 19 19 19 18 18 18 18 18 18 18 18 18 18 18 18 18 18 18 18 18 18 18 18 18 18 18 18 18 18
30 32 31 30 30 29 28 27 26 26 25 24 24 24 23 21 20 20 20 19 19 19 19 19 19 18 18 18 18 18 18 18 18 18 18 18 18 18 17 18 18 18 18 18 18 18 18 18 18
32 32 31 31 31 30 28 28 27 26 26 25 24 22 21 21 20 21 20 20 19 19 19 19 19 18 18 18 18 18 18 17 18 17 17 18 17 18 18 18 18 18 18 18 18 18 18 18 18
32 32 31 31 30 29 29 28 27 27 27 26 24 23 22 21 21 21 21 20 20 19 19 19 19 18 18 18 18 18 18 17 18 17 18 18 18 18 18 18 18 18 18 18 18 18 18 18 18
32 31 31 30 29 29 29 28 28 28 27 25 24 23 22 22 22 21 21 20 20 19 19 19 19 18 18 18 18 18 18 18 18 17 18 18 18 18 18 18 18 18 18 18 18 18 18 18 18
32 31 30 30 29 29 29 28 28 27 26 25 24 23 23 22 22 21 21 20 20 19 19 19 18 18 18 18 18 18 18 18 18 18 18 18 18 18 18 18 18 18 18 18 18 18 18 18 18
32 31 30 30 29 29 29 28 28 27 26 25 24 23 23 23 22 22 21 20 20 19 19 19 19 18 18 18 18 18 18 18 18 18 18 18 18 18 18 18 18 18 18 18 18 18 18 18 18
31 31 31 30 30 29 29 29 29 27 26 25 25 24 23 23 22 22 21 21 20 20 19 19 19 19 18 18 18 18 18 18 18 18 18 18 18 18 18 18 18 18 18 18 18 18 18 18 18
32 32 31 31 31 30 30 30 29 27 26 26 25 24 24 23 23 22 21 21 20 20 19 19 19 19 19 18 18 18 18 18 18 18 18 18 18 18 18 18 18 18 18 18 18 18 18 18 18
32 32 32 31 31 31 31 30 29 27 27 27 26 25 24 23 23 22 22 21 20 20 20 19 19 19 19 19 18 18 18 18 18 18 18 18 18 18 18 18 18 18 18 18 18 18 18 18 18
32 32 32 32 31 31 31 31 30 28 28 27 27 26 25 24 24 23 22 21 21 20 20 20 19 19 19 19 19 18 18 18 18 18 18 18 18 18 18 18 18 18 18 18 18 18 18 18 18
33 32 32 32 32 31 31 31 30 29 28 28 27 27 26 25 24 23 22 22 21 20 20 20 20 20 19 19 19 19 19 18 18 18 18 18 18 18 18 18 18 18 18 18 18 18 18 18 17
32 32 32 32 31 31 31 31 31 30 29 28 28 27 26 26 25 23 22 22 21 21 21 20 20 20 20 19 19 19 19 18 18 18 18 18 18 18 18 18 18 18 18 18 17 17 18 18 17
32 32 32 32 31 31 31 31 31 30 29 28 28 28 27 26 26 24 23 22 22 21 21 21 20 20 20 19 19 19 19 19 19 18 18 18 18 18 18 18 18 18 18 18 18 17 17 18 17
32 32 32 31 31 32 31 31 31 31 30 30 29 28 28 27 26 25 24 23 22 22 21 21 21 20 20 20 19 19 19 19 19 19 19 18 18 18 18 18 18 18 18 18 18 17 17 17 17
32 32 32 32 31 32 31 31 32 31 30 30 30 29 28 28 27 26 25 24 23 22 22 21 21 21 21 20 20 19 19 19 19 19 19 18 18 18 18 18 18 18 18 18 18 17 17 17 17
31 31 31 31 32 30 31 31 31 32 31 31 31 30 29 28 27 26 25 24 23 23 22 21 21 21 21 21 20 20 19 19 19 19 19 19 19 18 18 18 18 18 18 17 17 17 17 17 17
31 31 30 30 30 30 31 31 31 32 32 32 31 30 29 28 27 26 25 24 23 23 22 22 22 22 21 21 20 20 20 20 19 19 19 19 19 18 18 18 18 18 18 18 17 17 17 17 16
31 32 30 30 30 31 30 31 32 32 31 31 30 30 29 28 27 26 25 25 24 23 23 22 22 22 22 21 21 21 20 20 20 19 19 19 19 19 19 18 18 18 18 17 17 17 17 17 16
31 32 33 32 31 31 31 31 32 32 31 31 30 30 29 29 28 27 26 25 24 23 23 23 22 22 22 22 21 21 21 20 20 20 20 19 19 18 18 18 18 18 18 18 17 17 17 17 16
32 32 32 31 30 30 31 31 32 31 31 31 31 30 30 29 28 27 26 25 25 24 23 23 23 23 22 22 22 21 21 21 20 20 19 19 19 19 19 18 18 18 18 18 17 17 17 17 16
30 31 31 31 31 30 30 31 33 32 31 31 31 30 29 29 28 27 26 25 25 24 23 23 23 23 22 22 22 21 21 21 20 20 19 19 19 19 19 18 18 18 17 17 17 17 17 16 16
31 31 31 30 30 30 31 31 32 32 32 31 30 29 29 28 27 26 26 25 24 24 24 23 23 22 22 22 22 21 21 20 20 20 19 19 19 19 19 18 18 18 17 17 17 17 16 16 16
Wind_Speed
13 10 6 4 2 8 13 10 9 8 7 8 8 6 8 9 7 7 5 5 4 4 6 7 7 8 9 9 10 11 11 12 13 14 14 15 16 17 17 18 19 19 20 20 20 20 20 20 20
9 6 5 2 5 11 12 10 11 10 8 7 7 8 9 9 8 7 6 5 4 5 6 9 8 8 9 9 10 11 12 12 13 14 14 14 15 16 17 18 18 19 19 20 19 19 19 19 19
7 6 3 4 11 12 12 10 10 9 7 6 6 7 7 7 6 5 6 5 5 6 7 10 8 9 10 10 11 11 12 12 13 13 14 14 15 15 16 17 17 18 18 19 19 18 19 18 18
5 4 0 8 14 13 11 9 8 9 8 7 7 8 7 7 4 7 8 6 6 7 8 11 8 9 10 10 11 11 11 12 12 13 13 14 14 15 16 16 16 17 18 18 18 18 17 17 17
5 2 6 11 13 11 10 8 6 7 7 7 7 10 10 7 8 9 7 6 6 7 8 10 9 9 9 10 11 11 11 12 12 13 13 14 15 15 16 16 16 16 17 17 17 16 16 16 16
3 1 7 11 12 9 9 7 7 10 10 9 9 11 8 7 8 8 7 6 7 7 8 9 9 9 9 9 10 11 12 12 12 13 14 15 15 15 15 15 15 15 15 15 16 15 15 14 14
3 6 10 10 10 9 8 7 7 9 9 8 7 9 8 8 8 7 7 6 6 7 7 6 8 9 9 9 10 11 11 12 12 13 14 14 14 14 14 14 14 14 15 14 14 14 13 13 12
3 2 9 9 9 10 8 7 7 8 9 8 4 6 9 10 8 8 8 7 6 6 6 6 6 7 7 9 10 10 10 11 12 12 12 13 14 14 13 14 14 13 13 13 13 12 12 11 11
3 3 9 9 9 9 9 9 7 6 9 7 6 8 12 12 10 8 8 7 6 5 5 5 6 6 6 7 9 8 9 9 9 10 10 8 9 11 11 14 12 12 12 12 11 11 10 10 11
1 7 11 8 8 9 8 8 8 7 8 9 10 11 12 12 10 8 7 7 7 5 5 5 5 5 5 5 6 5 6 7 6 7 7 7 8 8 10 13 11 10 10 10 10 9 10 8 8
4 8 8 8 7 8 9 8 6 7 7 9 12 13 12 11 9 7 6 6 6 5 5 5 5 4 4 4 4 4 4 5 6 7 6 7 6 7 7 7 9 9 8 7 9 8 4 4 4
6 7 6 7 8 8 8 7 6 5 8 9 12 13 12 10 8 7 6 6 6 5 5 4 5 4 3 3 4 3 3 3 4 5 4 5 4 4 4 3 5 4 5 4 3 3 4 3 3
6 6 7 8 8 8 7 7 6 8 9 10 12 12 11 10 8 7 6 5 5 5 5 5 4 4 3 2 1 3 3 3 4 4 4 4 3 4 3 3 2 3 3 4 3 2 3 2 2
6 7 8 8 8 7 7 7 6 8 10 11 12 11 10 9 8 7 6 6 5 5 5 5 5 5 4 3 2 2 2 2 2 3 3 2 2 3 2 3 2 2 2 2 2 2 2 2 1
7 8 8 7 6 6 7 7 6 10 11 11 11 10 9 8 8 7 7 6 6 6 5 5 5 5 4 3 3 2 2 2 1 2 3 2 2 2 1 1 2 1 2 2 2 2 2 2 2
6 5 5 6 5 5 6 6 9 12 12 11 10 10 9 8 8 7 7 7 6 6 6 5 4 5 5 3 2 2 2 2 1 1 2 2 1 1 1 1 1 1 1 2 2 2 2 2 2
6 3 3 6 6 5 5 4 10 12 12 11 11 10 10 9 9 8 8 8 7 7 6 6 5 5 5 4 3 2 2 1 1 1 1 2 1 1 2 1 0 1 1 1 2 1 1 2 1
3 3 2 3 6 7 6 3 9 12 12 11 11 10 10 10 10 9 9 8 8 8 7 7 7 6 5 5 4 3 2 2 2 1 1 1 1 1 1 1 1 1 1 1 1 1 1 1 1
4 4 3 2 3 6 7 5 8 11 12 12 11 11 11 10 10 9 10 9 9 9 9 8 8 7 6 5 4 4 3 3 2 2 1 2 1 1 2 1 1 2 1 1 2 1 2 2 1
7 7 5 3 4 5 5 6 7 11 13 12 12 12 11 11 10 10 11 11 11 11 10 10 10 9 8 5 4 3 2 2 2 1 2 2 2 2 2 1 2 1 1 1 1 1 2 2 2
9 8 6 4 5 6 5 7 8 10 11 12 12 12 12 12 12 12 12 12 12 12 12 10 10 9 8 7 5 4 4 3 3 3 3 2 2 1 0 1 1 1 2 1 2 2 3 3 3
9 6 6 6 7 5 6 4 6 9 11 13 13 13 13 13 12 12 13 13 13 12 12 11 10 10 9 8 7 6 5 4 3 3 3 3 3 2 2 1 1 2 2 1 3 2 3 4 3
6 4 6 8 8 7 6 7 3 8 10 11 12 13 13 13 13 13 13 13 13 13 12 11 11 10 10 9 8 8 6 4 4 3 3 3 3 3 2 2 2 2 2 2 2 2 3 4 4
7 6 6 8 9 9 6 7 4 6 8 9 10 11 12 12 12 12 12 12 13 13 12 12 12 11 10 10 9 9 7 6 4 4 4 4 3 3 3 3 3 3 2 2 2 2 3 3 4
11 10 8 9 9 8 4 7 5 2 5 7 8 10 10 11 11 12 13 14 14 14 13 12 12 11 11 11 10 10 9 8 7 6 5 4 3 3 3 3 3 2 1 2 2 2 2 3 3
14 15 11 9 8 7 7 7 4 3 4 5 7 9 10 10 10 12 13 13 14 14 14 13 13 12 11 11 10 9 9 7 7 7 5 5 3 3 3 4 3 2 2 2 2 2 2 2 3
13 14 13 11 11 9 7 6 6 5 6 7 8 9 10 10 10 11 12 13 14 14 14 13 13 12 11 11 10 9 9 8 6 6 6 5 4 3 4 4 4 4 3 2 3 2 2 2 3
11 11 10 12 11 11 9 9 6 6 7 8 9 9 9 9 10 10 11 12 12 13 13 13 12 12 11 11 10 9 9 8 7 7 6 5 5 4 5 5 5 4 4 3 3 2 2 2 2
11 12 11 11 12 12 11 7 3 5 6 8 9 9 9 9 10 10 10 11 12 12 12 12 12 11 11 11 10 9 9 9 8 8 7 6 5 5 6 5 5 5 5 4 3 3 2 3 2
13 14 14 12 11 12 12 7 4 3 5 6 6 7 7 8 9 10 10 10 11 11 11 11 11 11 10 10 9 9 9 8 8 8 7 7 6 6 6 6 6 5 5 4 4 3 3 3 3
Wind_Direction
169 177 204 233 190 72 64 63 67 74 67 59 60 60 61 49 46 81 91 90 85 79 74 80 57 54 56 59 63 66 70 80 88 94 95 94 97 99 103 103 104 105 107 108 109 109 111 111 111
171 185 227 254 51 72 67 65 69 68 83 87 74 73 74 67 64 93 107 101 95 78 78 76 64 60 61 62 66 71 73 81 90 94 97 96 97 100 103 104 105 106 108 109 109 109 111 111 111
182 226 272 54 56 61 71 73 80 84 82 78 81 67 61 73 79 96 105 117 103 83 83 82 67 64 65 65 66 72 74 81 91 95 98 98 99 101 103 103 104 106 109 109 109 110 112 112 112
213 224 183 66 68 63 72 85 94 94 85 77 91 87 78 73 84 106 117 119 107 100 91 86 73 67 68 69 69 71 74 82 92 98 99 100 101 102 104 102 104 106 108 108 109 110 112 113 114
244 268 78 74 73 74 78 83 86 83 84 88 93 97 91 82 100 113 121 121 107 96 90 89 80 70 68 67 69 72 75 84 89 97 100 102 101 101 104 102 104 106 107 107 108 110 112 114 116
252 357 61 73 80 84 87 88 92 88 94 97 104 104 94 107 115 118 119 116 104 96 93 94 97 80 72 69 71 74 78 83 87 98 103 104 102 101 103 106 106 108 110 110 110 112 113 114 116
335 47 64 76 89 90 89 94 92 98 99 99 109 105 113 121 119 122 120 114 105 99 95 97 103 102 96 81 83 81 80 82 88 97 102 104 104 104 107 108 108 111 112 112 113 113 114 117 119
311 65 75 77 84 89 106 104 99 100 97 106 112 110 128 134 134 128 123 120 112 103 98 100 95 93 101 98 92 87 84 85 90 95 104 113 117 117 120 117 111 112 114 115 115 115 118 120 124
256 67 68 70 79 100 121 117 110 104 111 104 91 97 123 137 139 135 131 126 118 108 98 94 95 92 88 91 98 104 101 94 106 103 116 128 117 115 122 105 112 114 116 117 118 121 128 136 139
289 64 69 68 77 107 126 122 124 128 122 118 115 114 128 142 148 145 138 133 129 123 116 103 91 89 88 88 98 96 99 94 88 88 102 106 103 105 108 118 120 121 123 129 128 139 159 177 145
68 70 84 89 91 111 124 123 129 130 124 132 138 140 146 150 153 149 140 135 129 133 124 114 103 97 93 92 100 98 95 99 99 94 101 100 108 114 117 126 133 133 144 137 143 165 147 130 119
91 85 92 101 110 120 118 119 120 108 101 127 140 146 153 157 157 154 149 144 136 135 128 117 112 104 80 73 97 113 111 106 95 99 95 106 105 105 107 117 116 131 129 131 145 134 120 116 133
105 102 104 116 123 118 120 116 113 113 116 131 140 150 158 160 157 156 148 148 145 146 138 128 127 124 121 104 86 102 98 100 99 96 98 98 113 110 113 109 113 124 125 143 146 131 126 152 167
108 115 119 127 127 134 130 124 131 129 138 143 152 159 164 165 164 160 164 168 164 161 151 146 152 143 139 134 122 109 122 115 102 110 107 112 110 106 118 131 123 131 137 111 138 145 158 170 162
137 132 132 141 147 149 153 136 135 144 153 156 161 166 170 174 176 178 178 180 177 173 168 165 165 157 158 155 157 147 143 139 129 125 127 136 133 125 161 129 156 127 129 141 164 167 175 176 177
170 173 149 154 174 174 214 116 142 157 165 166 170 173 181 187 192 191 186 186 186 181 175 179 176 160 167 172 180 159 144 133 155 157 141 141 139 184 220 183 156 140 172 176 178 198 185 176 188
194 186 134 153 186 187 220 120 147 169 176 177 180 183 188 191 199 197 194 190 189 186 180 179 185 175 176 171 172 172 154 155 179 172 160 143 186 204 227 225 87 213 213 220 236 160 213 197 196
201 198 174 169 178 204 218 170 159 178 189 189 189 191 194 199 200 198 198 193 187 183 182 185 188 187 185 180 178 182 175 178 176 187 149 165 187 193 245 203 163 228 217 232 236 242 220 226 221
246 245 216 174 171 210 223 217 186 185 198 199 197 197 200 203 197 195 197 197 190 185 185 189 193 187 192 192 194 189 186 189 177 187 165 186 207 188 229 269 171 240 234 262 258 236 188 203 185
233 236 218 183 179 221 229 234 207 195 204 207 204 201 203 201 196 195 197 197 196 191 190 190 194 193 194 188 195 194 202 193 180 182 155 200 204 218 208 210 233 222 236 224 243 225 258 231 213
232 240 238 216 187 211 238 223 206 198 208 211 213 211 207 205 201 198 199 199 197 195 194 193 193 193 196 192 192 185 184 200 186 185 181 190 199 194 235 200 270 277 263 228 232 232 240 253 240
228 233 238 220 223 222 236 258 189 195 202 209 212 212 210 207 204 200 198 198 198 196 193 192 191 193 193 195 201 198 201 202 190 193 170 177 193 200 198 213 234 267 276 251 245 219 247 252 254
231 206 217 225 240 253 227 265 196 185 205 208 208 210 211 207 204 203 200 196 196 194 191 189 190 192 193 196 198 204 208 203 190 185 173 198 189 200 203 206 217 233 259 267 273 260 257 253 258
177 173 194 223 240 245 241 257 243 195 209 207 203 204 207 205 202 203 199 194 194 192 191 188 187 192 193 196 199 205 207 207 201 199 191 198 189 192 194 203 211 229 252 247 255 257 246 266 271
203 210 214 221 227 238 216 249 257 212 203 211 203 197 197 197 198 197 196 192 192 191 191 189 187 191 194 198 201 203 205 205 207 213 203 211 203 196 191 204 209 221 223 237 250 244 272 269 271
214 225 232 239 240 229 205 242 245 210 210 212 205 195 191 191 192 194 192 190 190 190 190 191 190 193 194 198 201 204 206 209 208 210 219 211 218 211 188 196 198 205 216 224 224 251 252 262 267
213 227 240 246 252 256 233 232 238 218 213 205 198 194 190 190 189 188 187 187 186 187 188 190 190 192 195 197 197 202 205 213 211 202 213 217 213 208 195 198 198 200 208 222 228 246 253 254 257
238 226 226 238 243 247 239 234 236 209 209 201 197 196 192 190 186 182 182 183 182 183 184 188 189 193 195 195 199 197 198 201 205 209 205 211 211 213 203 204 206 207 209 214 229 229 227 241 248
205 216 226 236 244 250 251 239 219 210 206 201 196 195 190 187 182 177 179 178 176 178 180 184 188 192 195 197 198 199 197 198 200 204 206 206 209 208 209 209 210 211 211 211 219 232 221 239 247
222 223 218 227 233 242 259 251 125 174 195 197 194 186 179 179 178 174 175 174 175 177 180 183 187 190 192 192 192 196 198 198 201 202 204 204 205 208 208 209 212 214 209 209 215 223 218 226 235
Height
1493 1493 1494 1495 1488 1489 1497 1497 1495 1498 1502 1506 1506 1506 1507 1509 1511 1521 1523 1521 1521 1521 1520 1518 1516 1515 1514 1513 1512 1511 1509 1508 1508 1508 1508 1509 1509 1510 1511 1513 1514 1516 1518 1520 1522 1524 1526 1528 1530
1495 1495 1496 1491 1486 1498 1505 1499 1500 1503 1507 1508 1509 1509 1510 1514 1518 1521 1522 1522 1522 1522 1522 1520 1518 1517 1516 1515 1514 1513 1512 1511 1511 1511 1512 1512 1513 1514 1515 1517 1518 1520 1522 1524 1526 1527 1530 1532 1533
1496 1496 1495 1486 1492 1500 1505 1502 1504 1507 1509 1509 1511 1512 1515 1519 1521 1523 1523 1523 1524 1524 1523 1521 1520 1519 1518 1517 1516 1515 1515 1514 1514 1514 1515 1516 1517 1518 1519 1521 1522 1524 1525 1527 1529 1531 1533 1535 1537
1498 1497 1492 1489 1498 1500 1501 1503 1506 1507 1510 1511 1512 1515 1519 1523 1524 1525 1524 1525 1526 1525 1525 1523 1521 1521 1520 1519 1518 1518 1517 1517 1517 1517 1517 1518 1520 1521 1523 1524 1526 1527 1529 1531 1532 1534 1536 1538 1540
1499 1492 1487 1494 1499 1501 1502 1506 1507 1507 1510 1513 1513 1516 1522 1525 1525 1526 1526 1527 1527 1528 1527 1525 1523 1523 1522 1521 1521 1520 1519 1519 1519 1520 1520 1521 1523 1524 1526 1527 1528 1530 1532 1534 1536 1537 1539 1541 1543
1495 1487 1491 1500 1503 1502 1505 1508 1508 1510 1513 1515 1516 1518 1524 1527 1527 1528 1528 1529 1529 1529 1529 1527 1526 1525 1524 1523 1522 1522 1522 1522 1522 1522 1523 1524 1526 1527 1529 1530 1532 1533 1535 1537 1539 1540 1542 1544 1546
1494 1487 1493 1497 1502 1504 1506 1509 1509 1511 1514 1517 1518 1519 1525 1528 1529 1529 1530 1530 1531 1531 1531 1530 1530 1528 1527 1525 1524 1525 1524 1524 1525 1525 1526 1527 1529 1531 1532 1534 1535 1537 1538 1540 1542 1543 1545 1547 1548
1495 1489 1493 1495 1500 1504 1508 1510 1512 1513 1516 1520 1520 1520 1525 1529 1530 1531 1531 1532 1532 1533 1532 1532 1532 1532 1531 1529 1528 1528 1527 1527 1528 1528 1529 1531 1532 1534 1535 1537 1538 1539 1541 1542 1544 1546 1547 1549 1550
1496 1490 1496 1496 1498 1503 1508 1510 1514 1516 1518 1521 1522 1523 1526 1529 1531 1532 1533 1534 1534 1534 1534 1534 1534 1534 1534 1533 1531 1531 1530 1530 1531 1532 1532 1534 1537 1538 1540 1540 1541 1542 1543 1545 1546 1548 1549 1551 1552
1493 1492 1497 1496 1497 1502 1508 1510 1513 1515 1518 1521 1524 1527 1528 1530 1532 1533 1534 1535 1536 1536 1536 1536 1536 1536 1536 1536 1534 1534 1535 1534 1535 1535 1536 1537 1538 1540 1542 1542 1543 1544 1546 1547 1548 1550 1551 1553 1555
1493 1494 1496 1499 1501 1504 1507 1510 1513 1514 1516 1520 1524 1527 1529 1531 1533 1535 1536 1536 1537 1537 1538 1538 1537 1537 1538 1537 1537 1537 1537 1536 1537 1537 1538 1539 1541 1543 1544 1545 1546 1547 1548 1550 1551 1552 1554 1556 1556
1495 1497 1499 1501 1504 1506 1507 1510 1513 1514 1517 1522 1525 1528 1530 1532 1534 1535 1536 1537 1538 1539 1539 1539 1539 1539 1538 1539 1539 1539 1539 1539 1540 1539 1540 1542 1543 1544 1546 1547 1548 1549 1550 1551 1553 1553 1555 1555 1556
1496 1499 1501 1503 1505 1507 1509 1511 1514 1517 1520 1523 1526 1529 1531 1532 1534 1536 1537 1538 1539 1539 1540 1540 1540 1539 1539 1539 1540 1541 1541 1542 1541 1541 1542 1543 1544 1545 1547 1547 1548 1550 1551 1552 1553 1554 1555 1556 1557
1498 1500 1502 1504 1506 1509 1510 1512 1514 1519 1522 1524 1527 1529 1531 1533 1534 1536 1537 1538 1539 1540 1540 1541 1541 1541 1541 1541 1541 1542 1543 1542 1543 1544 1544 1544 1546 1546 1548 1549 1549 1551 1552 1553 1553 1554 1555 1555 1556
1500 1500 1503 1504 1506 1508 1509 1511 1513 1518 1522 1524 1527 1529 1531 1533 1534 1536 1537 1538 1539 1540 1541 1541 1542 1542 1542 1542 1543 1544 1544 1544 1545 1545 1545 1545 1547 1547 1548 1550 1550 1551 1552 1552 1553 1553 1554 1555 1555
1496 1497 1501 1503 1504 1507 1507 1511 1512 1518 1521 1523 1526 1528 1531 1532 1534 1535 1537 1538 1539 1540 1540 1541 1543 1543 1543 1543 1544 1545 1546 1546 1545 1546 1546 1546 1547 1548 1549 1550 1551 1551 1552 1553 1552 1553 1554 1554 1555
1495 1498 1499 1501 1502 1504 1504 1506 1511 1516 1519 1521 1524 1526 1529 1531 1533 1534 1536 1537 1538 1539 1540 1541 1542 1543 1543 1544 1544 1545 1546 1546 1547 1547 1547 1548 1548 1548 1549 1550 1550 1551 1552 1552 1552 1553 1553 1553 1554
1498 1496 1498 1499 1499 1502 1503 1503 1508 1514 1516 1518 1521 1524 1527 1529 1531 1533 1534 1536 1537 1538 1539 1540 1541 1542 1543 1544 1545 1546 1546 1547 1548 1548 1548 1548 1548 1548 1549 1550 1549 1550 1551 1551 1551 1551 1551 1552 1552
1490 1493 1497 1497 1496 1500 1502 1502 1504 1510 1513 1515 1518 1521 1523 1526 1529 1531 1533 1534 1536 1537 1538 1539 1540 1541 1542 1544 1545 1546 1547 1547 1548 1548 1548 1548 1548 1548 1548 1549 1549 1549 1550 1550 1550 1550 1550 1551 1550
1491 1495 1495 1496 1497 1499 1500 1501 1499 1505 1509 1511 1514 1517 1520 1523 1526 1528 1530 1532 1533 1535 1536 1538 1539 1540 1542 1543 1544 1545 1546 1547 1548 1548 1548 1548 1548 1548 1549 1548 1549 1549 1548 1548 1549 1549 1549 1550 1549
1491 1492 1493 1496 1497 1497 1499 1501 1498 1501 1505 1509 1511 1514 1516 1519 1522 1525 1527 1529 1531 1532 1534 1536 1537 1539 1540 1542 1543 1544 1545 1546 1547 1547 1547 1547 1548 1548 1548 1548 1548 1548 1548 1548 1547 1547 1548 1548 1548
1493 1488 1491 1494 1499 1497 1498 1504 1496 1495 1500 1503 1506 1509 1512 1515 1518 1521 1524 1526 1528 1530 1532 1534 1536 1537 1539 1540 1542 1543 1544 1545 1546 1546 1547 1547 1547 1547 1547 1547 1547 1547 1547 1547 1547 1547 1546 1546 1547
1488 1487 1490 1492 1495 1496 1496 1501 1493 1491 1496 1496 1499 1503 1507 1510 1514 1517 1520 1523 1525 1528 1530 1532 1533 1535 1537 1538 1540 1541 1543 1544 1545 1545 1545 1546 1546 1546 1546 1546 1546 1546 1546 1545 1545 1544 1544 1545 1545
1487 1490 1492 1491 1492 1507 1497 1501 1497 1486 1489 1490 1494 1498 1503 1506 1510 1514 1517 1520 1522 1525 1528 1530 1531 1533 1534 1536 1538 1539 1541 1542 1543 1544 1545 1545 1546 1546 1545 1545 1545 1545 1545 1544 1543 1543 1542 1542 1542
1486 1492 1504 1509 1508 1505 1493 1498 1492 1481 1483 1486 1490 1495 1499 1503 1506 1510 1513 1516 1519 1522 1525 1527 1528 1530 1532 1534 1536 1537 1538 1540 1541 1542 1543 1543 1545 1545 1544 1544 1543 1543 1543 1542 1542 1541 1541 1540 1540
1482 1484 1501 1512 1509 1498 1496 1496 1483 1479 1483 1487 1489 1492 1496 1499 1503 1506 1509 1512 1515 1518 1521 1524 1526 1528 1530 1532 1533 1535 1536 1538 1539 1540 1541 1542 1542 1543 1542 1542 1541 1541 1541 1540 1540 1540 1539 1538 1537
1480 1480 1474 1486 1492 1498 1490 1487 1480 1478 1482 1484 1487 1489 1492 1496 1500 1503 1506 1509 1512 1515 1518 1521 1523 1525 1527 1529 1531 1532 1533 1535 1536 1537 1538 1539 1540 1540 1540 1540 1540 1539 1539 1538 1538 1538 1537 1536 1536
1473 1472 1480 1486 1503 1506 1495 1490 1484 1480 1480 1480 1483 1487 1490 1493 1497 1500 1503 1506 1509 1512 1515 1518 1520 1522 1524 1526 1528 1530 1531 1532 1533 1535 1536 1536 1537 1537 1538 1538 1538 1538 1537 1537 1536 1536 1535 1535 1534
1478 1478 1478 1480 1483 1498 1501 1489 1468 1473 1476 1478 1481 1484 1488 1491 1494 1497 1501 1504 1507 1510 1513 1515 1517 1519 1521 1523 1525 1527 1528 1529 1531 1532 1533 1534 1534 1535 1535 1536 1536 1536 1536 1535 1534 1534 1533 1533 1533
1468 1471 1476 1488 1491 1487 1489 1483 1467 1470 1474 1477 1480 1483 1487 1490 1492 1495 1499 1502 1504 1507 1510 1512 1515 1517 1519 1520 1522 1524 1525 1526 1528 1529 1530 1531 1531 1532 1532 1533 1533 1534 1534 1533 1533 1532 1532 1531 1531